Hourly Data Report for July 18, 2021

WINDSOR A
ONTARIO
Current Station Operator: NAVCAN

42°16'34.000" N
82°57'19.000" W
189.60 m
6139530
71538
YQG

Download Data

Hourly Data (July 2021)
Hourly Data Report for July 18, 2021
TIME
LST
Temp Definition
°C
Dew Point Definition
°C
Rel Hum Definition
%
Precip. Amount Definition
mm

Wind Dir Definition
10's deg

Wind Spd Definition
km/h
Visibility Definition
km
Stn Press Definition
kPa
Hmdx Definition


Wind Chill Definition


Weather Definition


00:00 19.4 16.3 82 0.0 36 9 16.1 99.89     LegendNANA
01:00 17.7 15.9 89 0.0 26 5 16.1 99.91     LegendNANA
02:00 18.4 15.5 83 0.0 34 8 16.1 99.93     LegendNANA
03:00 17.9 15.4 85 0.0 34 9 16.1 99.93     LegendNANA
04:00 17.3 15.1 87 0.0 33 11 16.1 99.94     LegendNANA
05:00 17.3 15.1 87 0.0 32 5 16.1 99.99     LegendNANA
06:00 17.2 14.9 86 0.0 31 4 16.1 100.04     LegendNANA
07:00 19.2 16.0 81 0.0 31 5 16.1 100.06     LegendNANA
08:00 21.4 16.1 71 0.0 31 5 16.1 100.08 26   LegendNANA
09:00 23.2 15.6 62 0.0 32 13 16.1 100.06 28   LegendNANA
10:00 24.9 16.8 60 0.0 32 13 16.1 100.06 30   LegendNANA
11:00 26.5 16.0 52 0.0 34 9 16.1 100.03 31   LegendNANA
12:00 27.9 15.7 47 0.0 32 13 16.1 100.01 32   LegendNANA
13:00 28.4 16.3 47 0.0 3 15 16.1 99.97 33   LegendNANA
14:00 28.4 16.6 48 0.0 1 15 16.1 99.93 33   LegendNANA
15:00 28.4 16.4 47 0.0 4 15 16.1 99.90 33   LegendNANA
16:00 28.1 16.8 50 0.0 5 15 16.1 99.88 33   LegendNANA
17:00 27.6 16.7 51 0.0 5 13 16.1 99.86 33   LegendNANA
18:00 26.6 17.5 57 0.0 5 9 16.1 99.84 32   LegendNANA
19:00 25.9 17.5 59 0.0 3 8 16.1 99.83 32   LegendNANA
20:00 25.2 16.0 56 0.0 36 8 16.1 99.84 30   LegendNANA
21:00 21.8 18.4 81 0.0   0 16.1 99.85 28   LegendNANA
22:00 20.3 18.3 88 0.0 17 4 16.1 99.89 27   LegendNANA
23:00 19.9 18.0 89 0.0   0 16.1 99.88     LegendNANA

Notes on Data Quality.

Legend

  • E = Estimated
  • M = Missing
  • NA = Not Available*
  • [empty] = Indicates an unobserved value
Date modified: